Location: Çankaya
(36.9399°N, 30.6761°E)
Time: 20:00:39
(UTC+00:00)

Daily predictions for brighter satellites

Satellite Brightness Start Highest point End
(mag) Time Altitude Azimuth Time Altitude Azimuth Time Altitude Azimuth
Cosmos 2278 3.8 17:41:35 10° NNW 17:47:19 80° ENE 17:53:00 10° SSE
Cosmos 1741 Rocket 4.1 17:43:18 10° S 17:48:26 58° ESE 17:53:39 10° NNE
ATLAS CENTAUR R/B 3.2 17:50:33 10° WSW 17:53:40 31° NW 17:56:51 10° N
Terra 3.9 17:52:13 10° E 17:53:47 12° ENE 17:55:20 10° NE
Delta 2 Rocket 4.4 17:51:48 10° SSW 17:53:57 16° SSE 17:56:04 10° ESE
SPOT 5 4.1 17:52:15 10° ESE 17:55:33 21° ENE 17:58:55 10° NNE
Cosmos 1300 4.4 17:53:19 10° NE 17:55:33 16° ENE 17:57:48 10° ESE
In-Cosmos 22 4.2 17:50:52 10° S 17:56:26 75° E 18:01:54 10° NNE
Cosmos 1869 Rocket 3.8 17:56:27 10° N 18:00:50 53° E 18:05:11 10° SSE
Cosmos 841 Rocket 3.6 17:55:48 10° NNW 18:01:02 64° ENE 18:06:14 10° SSE
Feng Yun 1-1 Rocket 4.4 17:55:36 10° SSE 18:01:25 86° WSW 18:07:07 10° NNW
ATLAS 2AS CENTAUR R/B 3.3 17:57:59 10° NNW 18:04:25 43° NE 18:10:29 11° ESE
Cosmos 1400 Rocket 2.6 18:00:36 10° S 18:04:26 76° E 18:08:15 10° NNE
CZ-4B R/B 3.5 18:01:48 10° S 18:07:03 67° WSW 18:12:24 10° NNW
Cosmos 1553 Rocket 4.2 18:02:32 10° N 18:08:47 78° W 18:15:07 10° S
Cosmos 2266 Rocket 4.1 18:04:21 10° S 18:10:40 72° E 18:17:03 10° N
RESURS DK-1 2.3 18:07:28 10° NNW 18:11:34 88° ENE 18:15:34 10° SSE
PSLV R/B 3.4 18:08:11 10° SSE 18:11:41 86° ENE 18:15:11 10° N
Cosmos 2360 Rocket 2.7 18:07:13 10° N 18:12:40 46° ENE 18:17:30 13° SE
Meteor 1-4 Rocket 3.9 18:12:14 14° ESE 18:13:19 16° E 18:15:15 10° NE
USA 186 3.6 18:10:30 10° SSW 18:13:30 32° W 18:16:31 10° NNW
Okean-O 3.0 18:09:17 10° SSE 18:13:31 49° ENE 18:17:46 10° N
S3M 4.1 18:09:52 10° N 18:16:08 63° E 18:22:17 10° SSE
SJ 16-02 1.4 18:12:26 10° S 18:16:37 53° ESE 18:20:50 10° NNE
SL-08 ROCKET BODY 4.4 18:11:18 10° S 18:17:23 75° E 18:23:24 10° N
Meteor 2-10 Rocket 3.9 18:12:46 10° N 18:18:00 50° ENE 18:22:32 12° SSE
Cosmos 1908 3.8 18:16:00 10° NNW 18:19:31 52° W 18:23:02 10° S
Okean O Rocket 2.0 18:18:56 10° S 18:23:15 63° WSW 18:27:35 10° NNW
Cosmos 2228 Rocket 3.2 18:22:32 10° S 18:27:02 64° E 18:31:34 10° NNE
Cosmos 1862 Rocket 3.9 18:24:14 10° SSE 18:28:20 46° E 18:32:35 10° NNE
COSMOS 2455 3.8 18:23:59 10° SSE 18:28:38 25° ESE 18:33:26 10° NE
Meteor 1-21 4.4 18:25:43 10° S 18:31:23 61° E 18:37:07 10° NNE
Okean 1-7 4.3 18:29:46 17° SE 18:31:36 23° E 18:35:01 10° NE
SL-16 R/B 2.8 18:27:23 10° NNW 18:32:54 54° WSW 18:38:23 10° S
SL-27 R/B 4.4 18:31:14 10° SW 18:33:32 24° WNW 18:35:52 10° N
GENESIS II 4.4 18:31:30 10° SW 18:35:05 65° WNW 18:38:43 10° NNE
Cosmos 1315 Rocket 3.8 18:33:53 20° SE 18:35:37 28° E 18:39:04 10° NNE
Centaur D-1AR AC-39 4.1 18:32:11 10° SSW 18:36:10 22° SSE 18:45:36 10° ESE
SeaSat 1 4.3 18:33:25 10° E 18:36:38 19° NE 18:39:58 10° N
Cosmos 1242 Rocket 4.3 18:42:35 11° ENE 18:42:35 11° ENE 18:42:54 10° ENE
IRS-1C Rocket 4.2 18:39:04 18° SSE 18:42:53 60° ENE 18:48:03 10° N
Ariane Rocket 4.0 18:40:21 19° ESE 18:43:09 31° ENE 18:47:34 10° N
Cosmos 1346 Rocket 2.7 18:39:40 10° N 18:43:29 63° E 18:45:36 24° SSE
IRS-1A Rocket 4.4 18:39:57 18° SSE 18:43:57 59° ENE 18:49:22 10° N
Cosmos 1655 Rocket 4.1 18:40:06 10° S 18:46:30 87° W 18:52:56 10° N
Cosmos 1707 Rocket 3.6 18:43:18 10° S 18:47:44 83° W 18:52:11 10° N
Okean 3 3.4 18:46:04 17° S 18:49:06 65° E 18:53:15 10° NNE
Cosmos 2333 Rocket 2.2 18:44:23 10° NNW 18:50:11 88° ENE 18:54:09 21° SSE
SL-14 R/B 4.0 18:47:51 10° SSW 18:51:31 50° W 18:55:14 10° N
Meteor 1-12 Rocket 4.5 18:47:56 10° NNW 18:53:57 77° W 18:59:04 14° S
SL-4 R/B 4.2 18:55:12 10° NNW 18:57:58 18° NNE 19:00:52 10° ENE
BREEZE-M DEB (TANK) 4.4 18:58:05 10° NNW 18:59:41 17° NE 19:01:23 12° ENE
Okean 2 3.6 18:58:32 32° SE 18:59:55 47° E 19:03:47 10° NNE
Centaur D AC-29 3.9 18:53:27 10° WSW 18:59:58 50° S 19:53:35 10° ESE
Centaur D AC-29 3.9 18:53:28 10° WSW 18:59:58 50° S 19:53:35 10° ESE
Centaur D AC-29 3.9 18:53:27 10° WSW 18:59:59 50° S 19:53:35 10° ESE
Centaur D AC-29 3.9 18:53:28 10° WSW 18:59:59 50° S 19:53:35 10° ESE
USA 234 3.2 18:58:31 10° NE 19:05:01 65° SE 19:11:29 10° SSW
Resurs 01 Rocket 4.2 19:02:53 10° SW 19:05:30 15° W 19:08:06 10° NW
Cosmos 1733 Rocket 3.2 19:04:02 10° N 19:08:28 74° W 19:10:56 26° S
Meteor 1-16 Rocket 4.3 19:03:46 10° N 19:09:41 67° E 19:12:43 29° SSE
Cosmos 2322 Rocket 3.2 19:05:35 10° NW 19:10:53 41° WSW 19:15:02 16° SSW
GOES 2 Rocket 4.4 19:05:27 10° WSW 19:12:05 36° S 19:13:49 31° SE
ASTRO E2 4.3 19:09:48 10° WSW 19:11:32 17° SSW 19:11:32 17° SSW
Cosmos 2333 4.3 19:06:28 10° NNW 19:12:16 79° WSW 19:15:27 28° SSE
Cosmos 2297 Rocket 3.1 19:12:04 27° ESE 19:12:37 27° ESE 19:17:17 10° NE
Meteor 2-20 Rocket 4.5 19:07:26 10° N 19:13:27 59° E 19:16:12 31° SSE
Atlas Centaur 2 4.3 19:13:20 10° WSW 19:18:49 21° SSW 19:21:28 18° S
MOS 1 Rocket 3.5 19:19:30 33° SSE 19:21:58 80° ENE 19:27:12 10° N
ERS-1 Rocket 3.2 19:23:36 29° S 19:26:10 66° W 19:31:10 10° NNW
Cosmos 2219 Rocket 2.2 19:21:52 10° NNW 19:27:34 82° WSW 19:30:00 36° SSE
Cosmos 371 Rocket 3.6 19:28:02 41° ESE 19:28:28 43° ESE 19:33:01 10° NNE
Cosmos 1908 Rocket 3.7 19:25:05 10° N 19:29:19 54° E 19:29:56 49° ESE
Cosmos 1814 Rocket 4.4 19:24:41 10° NNW 19:29:54 58° WSW 19:32:25 30° S
Terra 1.9 19:28:49 35° S 19:30:44 69° WSW 19:35:27 10° NNW
SPOT 5 4.2 19:30:46 16° SSW 19:33:23 29° W 19:37:14 10° NW
Cosmos 1375 Rocket 4.5 19:28:00 10° NNW 19:34:36 88° ENE 19:37:20 38° SSE
Cosmos 1570 Rocket 4.2 19:29:50 10° N 19:35:09 61° ENE 19:36:39 43° SE
SL-23 DEB 3.7 19:41:38 71° SE 19:41:40 72° SE 19:46:45 10° NE
CZ-4C R/B 2.0 19:43:18 17° SW 19:46:33 65° NW 19:51:40 10° NNE
Spot 1 4.3 19:43:23 10° NNE 19:48:11 85° WNW 19:49:52 43° SSW
NOSS 0 Rocket 4.4 19:43:26 10° NNW 19:49:28 48° ENE 19:51:25 36° ESE
GP-B 3.5 19:46:03 10° NNE 19:50:05 45° E 19:50:05 45° E
Cosmos 1386 Rocket 4.4 19:47:51 40° S 19:50:18 79° E 19:56:28 10° N
Landsat 4 4.0 19:50:33 51° W 19:50:33 51° W 19:53:46 10° NNW
Cosmos 2084 Rocket 3.5 19:49:44 41° SW 19:51:10 78° WNW 19:55:24 10° NNE
SPOT 3 Rocket 3.8 19:49:46 40° SSW 19:51:27 62° WSW 19:56:35 10° NNW
Cosmos 1745 Rocket 4.0 19:49:28 43° SSE 19:51:35 68° E 19:57:53 10° NNE
COSMOS 2428 2.7 19:48:05 10° NNW 19:53:48 75° ENE 19:55:12 52° SE
ATLAS 2AS CENTAUR R/B 3.7 19:49:13 10° NW 19:55:04 33° WSW 19:57:55 24° SSW
SJ 16-02 4.3 19:53:33 10° W 19:55:17 12° WNW 19:57:02 10° NW
Cosmos 2360 Rocket 4.1 19:52:05 10° NW 19:56:14 21° W 19:59:16 14° SW
Spot 2 Rocket 4.2 19:54:47 32° SSW 19:56:35 45° W 20:01:27 10° NNW
Cosmos 1777 Rocket 4.3 19:56:50 47° ESE 19:56:50 47° ESE 20:01:51 10° NNE
Cosmos 304 Rocket 3.5 20:00:13 73° SSE 20:00:32 78° ESE 20:05:18 10° NNE
Cosmos 1953 2.9 19:57:08 10° NNW 20:00:47 45° W 20:00:54 45° W
Nadezhda 1 Rocket 3.9 19:56:10 10° N 20:02:23 71° E 20:03:51 52° SE
Cosmos 1455 3.0 20:00:29 10° NNW 20:03:31 41° WNW 20:03:31 41° WNW
Cosmos 1503 Rocket 3.9 20:04:47 64° SSE 20:05:23 71° ESE 20:10:40 10° NNE
SeaSat 1 2.6 20:13:07 54° SW 20:13:38 57° WSW 20:18:29 10° NNW
COSMOS 2455 3.8 20:08:28 10° SW 20:14:12 46° WNW 20:20:01 10° NNE
Cosmos 2208 Rocket 3.9 20:12:24 10° NNW 20:17:34 73° WSW 20:18:02 68° SSW
H-2A R/B 4.3 20:20:49 21° ENE 20:20:49 21° ENE 20:23:34 10° NNE
Ariane Rocket 4.5 20:20:29 24° SW 20:22:00 27° W 20:26:19 10° NW
Cosmos 332 Rocket 4.3 20:25:17 47° ENE 20:25:17 47° ENE 20:29:09 10° NNE
CENTAUR R/B 2.2 20:24:52 63° ESE 20:24:52 63° ESE 20:31:07 10° NE
Cosmos 158 Rocket 4.1 20:21:57 10° NNW 20:27:05 62° WSW 20:27:21 61° WSW
CZ-2C R/B 3.8 20:23:05 10° NNE 20:27:01 69° NNE 20:27:01 69° NNE
Meteor 2-5 Rocket 3.7 20:28:46 68° SE 20:29:16 72° E 20:35:03 10° NNE
SL-16 R/B 4.0 20:30:51 10° N 20:34:53 19° NE 20:36:34 17° ENE
Cosmos 2227 Rocket 2.0 20:37:03 76° ESE 20:37:05 76° ESE 20:42:46 10° NNE
Cosmos 405 Rocket 4.4 20:33:34 10° N 20:35:40 27° NNE 20:35:40 27° NNE
SL-4 R/B 3.0 20:33:06 10° NW 20:35:53 44° NW 20:35:53 44° NW
Cosmos 2237 Rocket 2.2 20:31:57 10° NNW 20:37:36 67° ENE 20:37:57 65° E
Cosmos 1066 4.5 20:38:55 83° S 20:39:09 88° E 20:44:43 10° N
Cosmos 1709 Rocket 4.3 20:48:51 47° SW 20:50:25 60° W 20:56:42 10° N
Cosmos 1354 Rocket 4.4 20:50:49 54° W 20:51:27 58° WNW 20:56:41 10° N
Cosmos 1980 3.5 20:46:14 10° NNW 20:51:55 86° WSW 20:51:59 86° SW
Cosmos 2297 Rocket 3.4 20:53:48 24° WSW 20:56:25 37° WNW 21:01:39 10° N
USA 281 3.1 21:03:53 66° SE 21:04:49 78° ENE 21:11:25 10° NNW
Cosmos 967 Rocket 4.3 21:04:33 78° SSE 21:04:53 81° ESE 21:11:23 10° NNE
Cosmos 990 Rocket 4.2 21:05:55 60° NE 21:05:55 60° NE 21:10:11 10° NNE
Cosmos 2219 3.3 21:09:54 67° ENE 21:09:54 67° ENE 21:14:55 10° NNE
Meteor 1-24 Rocket 4.3 21:10:38 45° W 21:11:21 48° WNW 21:16:44 10° N
Cosmos 2184 Rocket 4.0 21:15:12 69° ESE 21:15:21 69° E 21:21:42 10° NNE
Cosmos 2263 Rocket 2.6 21:19:28 53° ENE 21:19:28 53° ENE 21:24:00 10° NNE
ARIANE 5 R/B 4.0 21:19:54 32° WNW 21:19:54 32° WNW 21:22:48 10° NNW
NOSS 3-2 (A) 3.4 21:31:19 61° NW 21:31:21 61° NW 21:37:06 10° NNE
Cosmos 2154 Rocket 3.9 21:33:46 78° E 21:33:47 78° E 21:40:06 10° N
Cosmos 292 Rocket 4.5 21:39:11 51° N 21:39:11 51° N 21:42:47 10° NNE
NOSS 3-2 (C) 3.6 21:43:00 50° ENE 21:43:00 50° ENE 21:47:26 10° NE
Meteor 1-21 Rocket 4.3 21:51:42 75° NE 21:51:42 75° NE 21:56:54 10° N
Cosmos 1538 Rocket 4.4 21:50:15 10° NNW 21:54:34 61° NNW 21:54:34 61° NNW
Cosmos 1818 4.3 21:50:19 10° NNW 21:55:35 46° NE 21:55:52 46° ENE
BREEZE-M R/B 4.1 21:57:09 36° W 21:58:54 55° NNW 22:09:44 10° ENE
In-Cosmos 22 Rocket 4.5 21:59:28 62° ENE 21:59:28 62° ENE 22:04:49 10° NNE
Meteor 2-11 Rocket 4.4 22:01:22 71° W 22:01:22 71° W 22:07:25 10° N
Cosmos 1610 Rocket 4.4 22:01:37 80° WSW 22:01:45 81° W 22:08:09 10° N
ALOS 2 4.2 22:04:51 28° NW 22:04:51 28° NW 22:07:19 10° NNW
Cosmos 1937 Rocket 3.8 22:08:25 64° N 22:08:25 64° N 22:12:50 10° NNE
CENTAUR R/B 4.4 22:11:56 12° W 22:16:04 23° NW 22:21:23 10° NNE
Cosmos 1339 Rocket 4.4 22:12:29 10° N 22:18:53 79° E 22:19:07 77° ESE
SL-16 R/B 2.7 22:13:48 10° NNW 22:18:24 51° WNW 22:18:24 51° WNW
Cosmos 2237 Rocket 4.4 22:18:05 10° WNW 22:19:45 13° W 22:19:45 13° W
Meteor 2-1 Rocket 4.5 22:15:26 10° N 22:21:13 61° E 22:21:14 61° E
Cosmos 1898 Rocket 4.3 22:22:17 44° NW 22:22:17 44° NW 22:26:51 10° N
Cosmos 923 Rocket 4.3 22:17:26 10° NNW 22:22:01 64° NNE 22:22:01 64° NNE
Cosmos 1943 3.8 22:21:37 10° N 22:27:01 47° ENE 22:27:39 45° E
Cosmos 2341 Rocket 3.8 22:32:09 85° SE 22:32:17 87° E 22:38:32 10° N
H-2A R/B 3.6 22:30:49 10° N 22:33:24 29° NW 22:33:24 29° NW
Cosmos 1867 3.7 22:41:01 73° NNW 22:41:01 73° NNW 22:46:08 10° NNE
Cosmos 1544 Rocket 4.5 22:43:54 10° N 22:47:11 47° NNE 22:47:11 47° NNE
USA 238 DEB 3.4 22:48:27 70° W 22:48:59 75° WNW 22:55:34 10° NNE
USA 238 3.4 22:48:30 71° W 22:49:01 76° WNW 22:55:37 10° NNE
Cosmos 2366 rocket 3.9 22:55:08 73° WSW 22:55:29 76° W 23:01:44 10° N
Cosmos 2218 Rocket 3.8 22:57:59 73° WSW 22:58:20 75° W 23:04:31 10° N
Cosmos 1680 Rocket 3.9 22:57:06 10° NNW 23:01:20 54° NW 23:01:20 54° NW
Cosmos 2263 Rocket 4.2 23:01:08 16° WNW 23:02:50 18° NW 23:06:34 10° NNW
GEOS 3 Rocket 3.7 23:01:30 10° NNE 23:06:36 66° NW 23:06:42 65° WNW
Cosmos 2112 Rocket 4.2 23:02:30 10° NNW 23:06:53 59° NW 23:06:53 59° NW
Cosmos 1844 3.6 23:09:16 84° SSW 23:09:28 89° ESE 23:15:18 10° NNE
ADEOS II 3.9 23:11:52 10° NE 23:15:39 20° E 23:17:02 18° ESE
ATLAS 5 CENTAUR R/B 3.5 23:18:05 15° ENE 23:18:05 15° ENE 23:19:00 10° ENE
Cosmos 1844 Rocket 2.7 23:18:48 64° W 23:19:05 65° WNW 23:24:38 10° NNE
Cosmos 1606 Rocket 4.5 23:19:07 10° N 23:23:17 41° E 23:23:31 40° E
Cosmos 494 Rocket 4.0 23:20:53 10° NNW 23:26:09 76° ENE 23:26:41 68° ESE
Cosmos 1536 Rocket 4.3 23:29:15 44° NW 23:29:15 44° NW 23:32:46 10° N
CZ-2D R/B 2.9 23:23:52 10° NNE 23:28:49 40° E 23:29:42 37° ESE
Cosmos 1048 Rocket 4.4 23:27:11 10° N 23:32:24 61° ENE 23:33:51 44° SE
Cosmos 1726 Rocket 4.5 23:31:44 10° N 23:35:55 41° E 23:36:34 39° ESE
CZ-2C R/B 3.4 23:36:27 28° SE 23:38:51 47° ENE 23:44:02 10° N
Cosmos 2228 4.3 23:36:51 10° NNW 23:39:32 30° NW 23:39:32 30° NW
Cosmos 1125 Rocket 3.3 23:40:20 73° S 23:40:49 84° ESE 23:46:09 10° NNE
Cosmos 2239 Rocket 4.3 23:40:10 59° SSW 23:41:26 86° W 23:47:36 10° N
Cosmos 1437 Rocket 4.3 23:47:14 27° NW 23:47:14 27° NW 23:49:31 10° NNW
Resurs 1-4 Rocket 2.2 23:41:23 10° NNE 23:46:39 66° ESE 23:47:42 53° SSE
Lacrosse 5 3.5 23:47:01 21° SE 23:47:23 22° ESE 23:51:10 10° ENE
COBE Rocket 4.2 23:44:16 10° N 23:49:18 55° WNW 23:49:44 53° W
NOSS 2-2 (E) 4.4 23:51:40 31° ENE 23:51:40 31° ENE 23:53:41 10° NE
Cosmos 1607 3.8 23:45:01 10° NNW 23:51:26 86° WSW 23:54:19 34° SSE
FENGYUN 3A 4.3 23:49:37 10° NNE 23:54:49 47° E 23:56:39 34° SSE
